Location: Unspecified
(0.0000°N, 0.0000°E)
Time: 20:55:41
(UTC+00:00)

Vanguard 1 - Visible Passes

Search period start: 19 April 2018 00:00
Search period end: 29 April 2018 00:00
Orbit: 650 x 3833 km, 34.2° (Epoch: 18 April)

Date Brightness Start Highest point End Pass type
(mag) Time Alt. Az. Time Alt. Az. Time Alt. Az.
19 Apr 13.3 04:05:46 10° N 04:13:20 19° NE 04:23:53 10° ENE visible
19 Apr 10.1 18:51:44 10° SW 19:00:13 60° SSE 19:03:57 20° ENE visible
20 Apr 13.2 04:25:31 10° NNW 04:34:45 27° NE 04:48:51 10° E visible
20 Apr 9.9 19:13:00 10° SW 19:21:16 83° NW 19:24:26 25° NE visible
21 Apr 13.1 04:45:36 10° NNW 04:55:57 36° NE 05:12:51 10° ESE visible
21 Apr 10.7 19:34:40 10° WSW 19:42:06 48° NW 19:44:58 24° NNE visible
22 Apr 13.0 05:05:55 10° NNW 05:17:02 49° NE 05:36:06 10° ESE visible
22 Apr 11.5 19:56:51 10° W 20:02:49 27° NW 20:05:30 18° N visible
23 Apr 13.1 03:10:13 10° N 03:15:31 15° NE 03:22:29 10° ENE visible
23 Apr 12.7 05:26:26 10° NW 05:38:07 64° NE 05:58:45 10° ESE visible
23 Apr 12.1 20:19:55 10° WNW 20:23:35 15° NW 20:26:03 12° NNW visible
24 Apr 13.0 03:29:30 10° N 03:36:43 23° NE 03:47:34 10° E visible
24 Apr 10.7 18:13:49 10° WSW 18:24:36 78° NW 18:30:30 10° NE visible
25 Apr 12.8 03:49:23 10° NNW 03:57:42 33° NE 04:11:32 10° E visible
25 Apr 11.3 18:35:42 10° WSW 18:45:26 49° NW 18:51:03 10° NNE visible
26 Apr 12.5 04:09:35 10° NNW 04:18:36 46° NE 04:34:43 10° ESE visible
26 Apr 12.1 18:58:07 10° WSW 19:06:08 31° NW 19:11:16 10° NNE visible
27 Apr 13.0 02:15:28 10° NNE 02:18:09 12° NE 02:21:14 10° ENE visible
27 Apr 12.1 04:30:02 10° NW 04:39:32 63° NE 04:57:18 10° ESE visible
27 Apr 12.3 19:21:17 10° W 19:26:51 18° NW 19:30:57 10° N visible
28 Apr 12.7 02:35:26 15° NNE 02:39:12 19° NE 02:46:52 10° E visible
28 Apr 11.9 04:50:45 10° NW 05:00:36 83° NE 05:19:27 10° SE visible
28 Apr 12.8 19:47:01 10° NW 19:47:42 10° NW 19:48:23 10° NW visible
